Regional Weather Roundup
Issued by NWS Spokane, WA

Current Version | Previous Version | Text Only | Print | Product List | Glossary On
Versions: 1 2 3 4 5 6 7 8 9 10 11 12 13 14 15 16 17 18 19 20 21 22 23 24 25 26 27 28 29 30 31 32 33 34 35 36 37 38 39 40 41 42 43 44 45 46 47 48 49 50
000 ASUS46 KOTX 021725 RWROTX Eastern Washington/Northern Idaho Roundup National Weather Service, Spokane WA 900 AM PST TUE MAR 02 2021 Note: "fair" indicated few or no clouds below 12,000 feet with no significant weather and/or obstructions to visibility. ...Northeast Washington and Northern Idaho Panhandle... CITY SKY/WX TMP DP RH WIND PRES REMARKS Spokane Intl PTSUNNY 42 31 64 SW16 29.95S Spokane Downto MOSUNNY 45 32 60 SW7 29.97S Coeur d Alene PTSUNNY 40 29 64 S10 29.96F Deer Park MOSUNNY 42 30 62 S8 29.96R Sandpoint PTSUNNY 43 30 61 S3 29.95S Bonners Ferry FAIR 45 28 53 S7 29.92S ...Southeast Washington and southern Idaho Panhandle... CITY SKY/WX TMP DP RH WIND PRES REMARKS Walla Walla CLOUDY 50 32 50 W8 30.01R Pullman/Moscow PTSUNNY 41 30 65 SE8 30.01S Lewiston PTSUNNY 47 30 51 S5 30.02R Lowell N/A 36 33 89 NW3 30.11S Grangeville CLOUDY 43 28 56 S17G26 30.00F ...Columbia Basin... CITY SKY/WX TMP DP RH WIND PRES REMARKS Ephrata MOSUNNY 41 34 76 CALM 29.97S Moses Lake MOSUNNY 46 35 65 CALM 29.98R Pasco MOSUNNY 46 37 71 CALM 30.02S Richland MOSUNNY 54 38 53 S6 30.01F Hermiston PTSUNNY 53 38 56 S6 30.03R Pendleton MOSUNNY 49 30 48 S10 30.02R ...East Slopes Cascades... CITY SKY/WX TMP DP RH WIND PRES REMARKS The Dalles MOSUNNY 43 36 76 VRB6 30.06S Yakima MOSUNNY 43 33 68 CALM 30.01R Ellensburg MOSUNNY 40 33 76 S5 29.99R Stampede Pass CLOUDY 32 31 96 W7 29.96R FOG WCI 26 Wenatchee MOSUNNY 40 34 79 SW5 29.96S Winthrop FAIR 26 25 96 CALM 29.97S Omak SUNNY 39 31 72 CALM 29.94F Sunnyside MOSUNNY 47 37 69 CALM 30.01S ...Southern British Columbia... CITY SKY/WX TMP DP RH WIND PRES REMARKS Penticton PTSUNNY 41 34 75 S15 29.91S Castlegar PTSUNNY 39 30 70 SE7 29.93 Cranbrook PTSUNNY 43 27 52 S15G22 29.83 Osoyoos N/A 39 30 70 SW2 N/A Creston N/A 41 30 65 E6 N/A ...Western Montana... CITY SKY/WX TMP DP RH WIND PRES REMARKS Kalispell PTSUNNY 43 28 55 S12 29.91F Libby N/A 45 32 61 SW7 29.90S Missoula CLOUDY 32 30 92 VRB3 29.99S ...Neighboring Cities... CITY SKY/WX TMP DP RH WIND PRES REMARKS Seattle CLOUDY 42 40 92 N8 30.08R Portland CLOUDY 42 38 85 E5 30.11R Boise SUNNY 40 24 53 E6 30.12F Great Falls SUNNY 47 22 37 SW25G37 29.86F Calgary MOSUNNY 32 25 74 S7 29.65F WCI 26

USA.gov is the U.S. government's official web portal to all federal, state and local government web resources and services.